Weather in Khiydenselga

Russia / Republic of Karelia     61°42′47″N   30°59′02″E
temp.,
°C
wind,
m/s
gust,
m/s
humid.,
%
clouds,
%
prec.,
mm/h
press.,
hPa
HPBL,
m
1 march, mon
mon100:00−1wsw359777 0.0 1017155
03:00+1w3109889 0.0 1017448
06:00+1wnw41096100 0.0 1015486
09:00+1w41293100 0.0 1014527
12:00+2w41295100 0.0 1012607
15:00+2w41395100 0.0 1011835
18:00+2w51490100 0.1 1009745
21:00+2wnw5139093 0.1 1008788
2 march, tue
tue200:000wnw4138733 0.0 1008615
03:00−1wnw4138616 0.0 1008587
06:00−3w412890 0.0 1006434
09:00−2nw514860 0.0 1008628
12:000nw5118235 0.0 1009842
15:00+1nw5127317 0.0 10121504
18:00−1nw4127914 0.0 1013585
21:00−3wnw412897 0.0 1015419
3 march, wed
wed300:00−3wnw411880 0.0 1015384
03:00−3wnw412870 0.0 1014474
06:00−3wnw513860 0.0 1013514
09:00−3wnw412880 0.0 1013523
12:00−1wnw498518 0.0 1012529
15:000w488859 0.0 1009639
18:00−1sw3998100 0.9 1003507
21:00+2w61493100 2.6 9981024
4 march, thu
thu400:00−1wnw6148595 0.1 996845
03:00−3nw4119194 0.1 997569
06:00−4nw4108694 0.1 998742
09:00−4nnw499296 0.3 999729
12:00−4nnw588598 0.1 1000713
15:00−3nnw587999 0.1 10021036
18:00−6nnw498590 0.1 1003486
21:00−7nnw4108953 0.1 1005382
5 march, fri
fri500:00−9nw38920 0.0 1006304
03:00−10nw37940 0.0 1007233
06:00−11nw269427 0.0 1008238
09:00−10nw269260 0.0 1009351
12:00−7nnw248577 0.0 1010443
15:00−6nnw358487 0.1 1012703
18:00−8n258467 0.1 1014135
21:00−11nnw128959 0.1 101521